• In Hungary
  • List of Countries
  • For 7 days
  • Water Temperature
  • Satellite Maps
  • Weather Map
  • News
  • Weather Widgets
  • user-avatar
    Login

    Hourly Weather Grigorevo

    Today, 27 May, Sunday

    Time Temperature Precipitation Wind Pressure Humidity
    00:00 +10°C° 0 mm 2 mps 751 mmHg 80%
    01:00 +9°C° 0 mm 2 mps 751 mmHg 82%
    02:00 +9°C° 0 mm 2 mps 751 mmHg 84%
    03:00 +9°C° 0 mm 2 mps 751 mmHg 83%
    04:00 +10°C° 0 mm 2 mps 751 mmHg 83%
    05:00 +10°C° 0 mm 2 mps 750 mmHg 82%
    06:00 +13°C° 0 mm 2 mps 750 mmHg 76%
    07:00 +14°C° 0 mm 3 mps 750 mmHg 70%
    08:00 +17°C° 0 mm 3 mps 750 mmHg 63%
    09:00 +18°C° 0 mm 3 mps 750 mmHg 58%
    10:00 +20°C° 0 mm 3 mps 749 mmHg 53%
    11:00 +21°C° 0 mm 3 mps 749 mmHg 48%
    12:00 +22°C° 0 mm 3 mps 749 mmHg 47%
    13:00 +22°C° 0 mm 3 mps 748 mmHg 47%
    14:00 +23°C° 0 mm 4 mps 748 mmHg 46%
    15:00 +24°C° 0 mm 3 mps 748 mmHg 48%
    16:00 +24°C° 0 mm 3 mps 747 mmHg 51%
    17:00 +22°C° 0 mm 3 mps 747 mmHg 54%
    18:00 +21°C° 0 mm 3 mps 747 mmHg 62%
    19:00 +19°C° 0 mm 2 mps 747 mmHg 71%
    20:00 +17°C° 0 mm 2 mps 747 mmHg 79%
    21:00 +16°C° 0 mm 2 mps 747 mmHg 82%
    22:00 +15°C° 0 mm 2 mps 747 mmHg 85%
    23:00 +15°C° 0 mm 2 mps 747 mmHg 87%

    Tomorrow, 28 May, Monday

    Time Temperature Precipitation Wind Pressure Humidity
    00:00 +14°C° 0 mm 2 mps 748 mmHg 85%
    01:00 +13°C° 0 mm 2 mps 748 mmHg 84%
    02:00 +12°C° 0 mm 2 mps 748 mmHg 82%
    03:00 +12°C° 0 mm 2 mps 749 mmHg 77%
    04:00 +11°C° 0 mm 3 mps 749 mmHg 73%
    05:00 +10°C° 0 mm 3 mps 749 mmHg 69%
    06:00 +12°C° 0 mm 3 mps 750 mmHg 63%
    07:00 +13°C° 0 mm 3 mps 750 mmHg 58%
    08:00 +16°C° 0 mm 3 mps 750 mmHg 52%
    09:00 +17°C° 0 mm 3 mps 751 mmHg 48%
    10:00 +18°C° 0 mm 4 mps 751 mmHg 43%
    11:00 +19°C° 0 mm 4 mps 751 mmHg 39%
    12:00 +20°C° 0 mm 3 mps 751 mmHg 37%
    13:00 +20°C° 0 mm 3 mps 751 mmHg 36%
    14:00 +21°C° 0 mm 3 mps 751 mmHg 35%
    15:00 +20°C° 0 mm 3 mps 751 mmHg 37%
    16:00 +20°C° 0 mm 3 mps 751 mmHg 39%
    17:00 +19°C° 0 mm 3 mps 751 mmHg 41%
    18:00 +17°C° 0 mm 2 mps 751 mmHg 49%
    19:00 +15°C° 0 mm 2 mps 751 mmHg 56%
    20:00 +13°C° 0 mm 2 mps 751 mmHg 64%
    21:00 +12°C° 0 mm 2 mps 751 mmHg 65%
    22:00 +10°C° 0 mm 2 mps 751 mmHg 67%
    23:00 +9°C° 0 mm 2 mps 752 mmHg 68%

    Day after tomorrow, 29 May, Tuesday

    Time Temperature Precipitation Wind Pressure Humidity
    00:00 +8°C° 0 mm 2 mps 752 mmHg 69%
    01:00 +9°C° 0 mm 1 mps 752 mmHg 71%
    02:00 +8°C° 0 mm 1 mps 752 mmHg 72%
    03:00 +9°C° 0 mm 1 mps 752 mmHg 72%
    04:00 +9°C° 0 mm 1 mps 752 mmHg 72%
    05:00 +10°C° 0 mm 1 mps 752 mmHg 72%
    06:00 +12°C° 0 mm 1 mps 752 mmHg 66%
    07:00 +14°C° 0 mm 1 mps 751 mmHg 59%
    08:00 +17°C° 0 mm 2 mps 751 mmHg 53%
    09:00 +18°C° 0 mm 2 mps 751 mmHg 49%
    10:00 +20°C° 0 mm 2 mps 751 mmHg 44%
    11:00 +21°C° 0 mm 2 mps 750 mmHg 40%
    12:00 +23°C° 0 mm 2 mps 750 mmHg 39%
    13:00 +23°C° 0 mm 2 mps 749 mmHg 39%
    14:00 +24°C° 0 mm 3 mps 749 mmHg 38%
    15:00 +24°C° 0 mm 3 mps 748 mmHg 41%
    16:00 +24°C° 0 mm 3 mps 747 mmHg 45%
    17:00 +24°C° 0 mm 3 mps 747 mmHg 48%
    18:00 +21°C° 0 mm 2 mps 746 mmHg 57%
    19:00 +19°C° 0 mm 2 mps 746 mmHg 67%
    20:00 +17°C° 0 mm 2 mps 745 mmHg 76%
    21:00 +16°C° 0 mm 2 mps 745 mmHg 80%
    22:00 +15°C° 0 mm 2 mps 745 mmHg 84%
    23:00 +13°C° 0 mm 3 mps 745 mmHg 89%

    30 May, Wednesday

    Time Temperature Precipitation Wind Pressure Humidity
    00:00 +13°C° 0 mm 3 mps 744 mmHg 91%
    01:00 +14°C° 0 mm 2 mps 744 mmHg 93%
    02:00 +13°C° 0 mm 2 mps 744 mmHg 95%
    03:00 +13°C° 0 mm 3 mps 743 mmHg 93%
    04:00 +13°C° 0 mm 3 mps 743 mmHg 91%
    05:00 +14°C° 0 mm 3 mps 743 mmHg 89%
    06:00 +17°C° 0 mm 3 mps 742 mmHg 80%
    07:00 +19°C° 0 mm 3 mps 742 mmHg 72%
    08:00 +21°C° 0 mm 4 mps 741 mmHg 63%
    09:00 +23°C° 0 mm 4 mps 741 mmHg 59%
    10:00 +25°C° 0 mm 5 mps 740 mmHg 54%
    11:00 +26°C° 0 mm 5 mps 740 mmHg 50%
    12:00 +26°C° 0 mm 5 mps 739 mmHg 51%
    13:00 +26°C° 0 mm 5 mps 739 mmHg 52%
    14:00 +26°C° 0 mm 5 mps 738 mmHg 53%
    15:00 +26°C° 0 mm 4 mps 738 mmHg 54%
    16:00 +25°C° 0 mm 4 mps 737 mmHg 55%
    17:00 +25°C° 0 mm 4 mps 737 mmHg 56%
    18:00 +23°C° 0 mm 4 mps 737 mmHg 61%
    19:00 +22°C° 0 mm 3 mps 736 mmHg 65%
    20:00 +20°C° 0 mm 3 mps 736 mmHg 70%
    21:00 +19°C° 0.1 mm 3 mps 736 mmHg 73%
    22:00 +17°C° 0.1 mm 3 mps 737 mmHg 76%
    23:00 +14°C° 0.1 mm 3 mps 737 mmHg 80%

    31 May, Thursday

    Time Temperature Precipitation Wind Pressure Humidity
    00:00 +13°C° 0.1 mm 3 mps 737 mmHg 78%
    01:00 +13°C° 0.1 mm 2 mps 737 mmHg 76%
    02:00 +10°C° 0.1 mm 2 mps 737 mmHg 74%
    03:00 +10°C° 0 mm 2 mps 737 mmHg 74%
    04:00 +9°C° 0 mm 3 mps 738 mmHg 73%
    05:00 +9°C° 0 mm 3 mps 738 mmHg 72%
    06:00 +10°C° 0 mm 3 mps 738 mmHg 67%
    07:00 +11°C° 0 mm 3 mps 738 mmHg 61%
    08:00 +13°C° 0 mm 3 mps 739 mmHg 56%
    09:00 +13°C° 0 mm 4 mps 739 mmHg 52%
    10:00 +14°C° 0 mm 4 mps 739 mmHg 49%
    11:00 +15°C° 0 mm 4 mps 739 mmHg 45%
    12:00 +17°C° 0 mm 4 mps 739 mmHg 43%
    13:00 +17°C° 0 mm 4 mps 739 mmHg 40%
    14:00 +17°C° 0 mm 4 mps 739 mmHg 38%
    15:00 +17°C° 0 mm 4 mps 739 mmHg 38%
    16:00 +15°C° 0 mm 4 mps 739 mmHg 39%
    17:00 +15°C° 0 mm 4 mps 739 mmHg 39%
    18:00 +13°C° 0 mm 3 mps 739 mmHg 45%
    19:00 +11°C° 0 mm 3 mps 739 mmHg 51%
    20:00 +9°C° 0 mm 2 mps 739 mmHg 57%
    21:00 +8°C° 0 mm 2 mps 739 mmHg 58%
    22:00 +7°C° 0 mm 2 mps 740 mmHg 59%
    23:00 +6°C° 0 mm 2 mps 740 mmHg 60%

    1 June, Friday

    Time Temperature Precipitation Wind Pressure Humidity
    00:00 +5°C° 0 mm 2 mps 740 mmHg 62%
    01:00 +5°C° 0 mm 2 mps 740 mmHg 64%
    02:00 +4°C° 0 mm 2 mps 740 mmHg 66%
    03:00 +4°C° 0 mm 2 mps 740 mmHg 66%
    04:00 +4°C° 0 mm 3 mps 740 mmHg 66%
    05:00 +4°C° 0 mm 3 mps 740 mmHg 66%
    06:00 +5°C° 0 mm 3 mps 741 mmHg 61%
    07:00 +7°C° 0 mm 4 mps 741 mmHg 56%
    08:00 +8°C° 0 mm 4 mps 741 mmHg 51%
    09:00 +10°C° 0 mm 4 mps 741 mmHg 48%
    10:00 +11°C° 0 mm 4 mps 741 mmHg 45%
    11:00 +12°C° 0 mm 5 mps 741 mmHg 42%
    12:00 +12°C° 0 mm 5 mps 741 mmHg 41%
    13:00 +12°C° 0 mm 5 mps 741 mmHg 41%
    14:00 +12°C° 0 mm 5 mps 741 mmHg 40%
    15:00 +12°C° 0 mm 5 mps 741 mmHg 41%
    16:00 +12°C° 0 mm 4 mps 742 mmHg 41%
    17:00 +11°C° 0 mm 4 mps 742 mmHg 42%
    18:00 +10°C° 0 mm 3 mps 742 mmHg 47%
    19:00 +9°C° 0 mm 2 mps 742 mmHg 53%
    20:00 +7°C° 0 mm 2 mps 742 mmHg 58%
    21:00 +8°C° 0 mm 1 mps 742 mmHg 59%
    22:00 +7°C° 0 mm 1 mps 742 mmHg 60%
    23:00 +6°C° 0 mm 1 mps 743 mmHg 62%
    Show more